Location: Thouarc�
(47.2667°N, 0.5000°W)
Time: 16:59:58
(UTC+02:00)

ISS - Visible Passes

Search period start: 19 July 2018 00:00
Search period end: 29 July 2018 00:00
Orbit: 402 x 408 km, 51.6° (Epoch: 19 July)

Date Brightness Start Highest point End Pass type
(mag) Time Alt. Az. Time Alt. Az. Time Alt. Az.
19 Jul -3.1 01:30:34 24° W 01:32:18 54° NNW 01:35:33 10° ENE visible
19 Jul -2.2 03:06:05 10° WNW 03:09:11 37° N 03:12:18 10° ENE visible
19 Jul -3.7 04:42:41 10° WNW 04:45:59 76° NNE 04:49:17 10° ESE visible
19 Jul -2.6 23:01:22 10° S 23:03:57 21° SE 23:06:31 10° E visible
20 Jul -3.7 00:36:52 10° WSW 00:40:09 76° NNW 00:43:27 10° ENE visible
20 Jul -2.2 02:13:51 10° WNW 02:16:57 37° N 02:20:03 10° ENE visible
20 Jul -3.1 03:50:34 10° WNW 03:53:50 54° NNE 03:57:04 10° E visible
20 Jul -3.2 05:27:11 10° WNW 05:30:15 35° SW 05:33:18 10° SSE visible
20 Jul -4.0 23:44:46 10° SW 23:48:02 71° SSE 23:51:19 10° ENE visible
21 Jul -2.4 01:21:34 10° W 01:24:42 40° N 01:27:51 10° ENE visible
21 Jul -2.6 02:58:26 10° WNW 03:01:37 43° N 03:04:47 10° E visible
21 Jul -3.9 04:34:58 10° WNW 04:38:13 59° SSW 04:41:28 10° SE visible
21 Jul -3.5 22:52:51 10° SW 22:55:58 43° SSE 22:59:07 10° ENE visible
22 Jul -2.9 00:29:16 10° W 00:32:28 49° NNW 00:35:41 10° ENE visible
22 Jul -2.3 02:06:15 10° WNW 02:09:22 37° N 02:12:28 10° ENE visible
22 Jul -3.9 03:42:48 10° WNW 03:46:07 87° NNE 03:49:25 10° ESE visible
22 Jul -2.3 05:19:56 10° W 05:22:15 18° SW 05:24:33 10° S visible
22 Jul -3.4 23:36:59 10° WSW 23:40:15 66° NNW 23:43:32 10° ENE visible
23 Jul -2.2 01:14:00 10° WNW 01:17:05 36° N 01:20:11 10° ENE visible
23 Jul -3.0 02:50:40 10° WNW 02:53:17 47° NNW 02:53:17 47° NNW visible
23 Jul -3.9 22:44:49 10° WSW 22:48:05 84° SSE 22:51:23 10° ENE visible
24 Jul -2.3 00:21:41 10° WNW 00:24:48 38° N 00:27:55 10° ENE visible
24 Jul -2.8 01:58:30 10° WNW 02:01:39 46° N 02:01:39 46° N visible
24 Jul -2.7 23:29:21 10° W 23:32:31 45° NNW 23:35:42 10° ENE visible
25 Jul -2.4 01:06:19 10° WNW 01:09:26 39° N 01:10:40 27° NE visible
25 Jul -1.2 02:42:50 10° WNW 02:43:16 13° WNW 02:43:16 13° WNW visible
25 Jul -3.2 22:37:01 10° W 22:40:16 58° NNW 22:43:31 10° ENE visible
26 Jul -2.3 00:14:02 10° WNW 00:17:07 36° N 00:19:52 12° ENE visible
26 Jul -2.2 01:50:39 10° WNW 01:52:29 30° NW 01:52:29 30° NW visible
26 Jul -2.3 23:21:41 10° WNW 23:24:47 37° N 23:27:53 10° ENE visible
27 Jul -3.1 00:58:27 10° WNW 01:01:41 50° NNE 01:01:47 50° NNE visible
27 Jul -2.5 22:29:19 10° W 22:32:28 42° N 22:35:37 10° ENE visible
28 Jul -2.6 00:06:13 10° WNW 00:09:22 41° N 00:11:07 21° ENE visible
28 Jul -1.5 01:42:44 10° WNW 01:43:45 18° WNW 01:43:45 18° WNW visible
28 Jul -2.4 23:13:56 10° WNW 23:17:02 37° N 23:20:07 10° ENE visible
